Regional Weather Roundup
Issued by NWS

Home | Current Version | Previous Version | Text Only | Print | Product List | Glossary On
Versions: 1 2 3 4 5 6 7 8 9 10 11 12 13 14 15 16 17 18 19 20 21 22 23 24 25 26 27 28 29 30 31 32 33 34 35 36 37 38 39 40 41 42 43 44 45 46 47 48 49 50
000
ASUS43 KDTX 301210
RWRMI
MICHIGAN HOURLY REGIONAL WEATHER ROUNDUP
NATIONAL WEATHER SERVICE DETROIT/PONTIAC MI
800 AM EDT SAT AUG 30 2014

NOTE: "FAIR" INDICATES FEW OR NO CLOUDS BELOW 12,000 FEET WITH NO
SIGNIFICANT WEATHER AND/OR OBSTRUCTION TO VISIBILITY.

MIZ047>049-052>055-059>063-066>070-074>076-081>083-301300-
SOUTHEAST LOWER MICHIGAN

CITY           SKY/WX    TMP DP  RH WIND       PRES   REMARKS
ADRIAN         MOSUNNY   69  64  84 SW8       29.98S
6HR MIN TEMP:  67; 6HR MAX TEMP:  69;

ALMA           CLOUDY    70  65  83 S8        29.89S
ANN ARBOR      MOSUNNY   68  62  81 SW7       29.97S
BAD AXE        MOSUNNY   69  65  85 S12       29.93S
6HR MIN TEMP:  64; 6HR MAX TEMP:  69;

DETROIT CITY   SUNNY     74  65  73 S9        29.98S
6HR MIN TEMP:  72; 6HR MAX TEMP:  74;

DETROIT        PTSUNNY   72  64  76 S8        29.98S
6HR MIN TEMP:  67; 6HR MAX TEMP:  72;

FLINT          MOSUNNY   74  63  68 S8        29.93F
6HR MIN TEMP:  70; 6HR MAX TEMP:  74;

GROSSE ILE     SUNNY     73  66  78 S13       29.97S
HILLSDALE      PTCLDY    70  67  92 S8        29.98R
6HR MIN TEMP:  68; 6HR MAX TEMP:  71;

HOWELL         MOSUNNY   69  64  84 S9        29.95S

CITY           SKY/WX    TMP DP  RH WIND       PRES   REMARKS
JACKSON        PTCLDY    71  64  78 S9        29.95S
6HR MIN TEMP:  69; 6HR MAX TEMP:  72;

LAMBERTVILLE   MOSUNNY   72  63  73 S6        29.99S
LANSING        PTCLDY    71  64  78 S10       29.91F
6HR MIN TEMP:  69; 6HR MAX TEMP:  71;

LAPEER         NOT AVBL
MASON          MOSUNNY   67  64  88 S6        29.94S
MONROE         MOSUNNY   72  64  78 S8        29.97S
MT. CLEMENS    PTSUNNY   71  65  81 S9        29.96S
6HR MIN TEMP:  67; 6HR MAX TEMP:  71;

PONTIAC        PTSUNNY   70  62  76 S12       29.97S
6HR MIN TEMP:  68; 6HR MAX TEMP:  70;

PORT HOPE        N/A     69  62  78 VRB6      29.90F
6HR MIN TEMP:  65; 6HR MAX TEMP:  69; 6HR PCP:  0.01;

PORT HURON     MOSUNNY   68  64  88 S7        29.97S
TRI CITIES     PTSUNNY   70  64  81 S8        29.89F
6HR MIN TEMP:  69; 6HR MAX TEMP:  70;

YPSILANTI      MOSUNNY   72  64  76 S6        29.98S
6HR MIN TEMP:  68; 6HR MAX TEMP:  73;

$$
MIZ043>046-050>051-056>058-064>065-071>073-077>080-301300-
SOUTHWEST LOWER MICHIGAN

CITY           SKY/WX    TMP DP  RH WIND       PRES   REMARKS
BATTLE CREEK   LGT RAIN  72  65  78 S15       29.93R
6HR MIN TEMP:  71; 6HR MAX TEMP:  73; 6HR PCP: TRACE;

BENTON HARBOR  LGT RAIN  72  68  87 S8        29.88R
6HR MIN TEMP:  70; 6HR MAX TEMP:  74; 6HR PCP: TRACE;

BIG RAPIDS     CLOUDY    69  69 100 S6        29.85F FOG
6HR MIN TEMP:  68; 6HR MAX TEMP:  70; 6HR PCP:  0.12;

COLDWATER      CLOUDY    71  67  89 CALM      29.96R
6HR MIN TEMP:  71; 6HR MAX TEMP:  74;

HOLLAND        CLOUDY    74  69  85 S12       29.87R
6HR MIN TEMP:  71; 6HR MAX TEMP:  74; 6HR PCP: TRACE;

GRAND RAPIDS   LGT RAIN  72  71  97 S15       29.89R FOG
6HR MIN TEMP:  71; 6HR MAX TEMP:  74; 6HR PCP:  0.07;

KALAMAZOO      LGT RAIN  71  67  87 S12       29.92R FOG
6HR MIN TEMP:  71; 6HR MAX TEMP:  72; 6HR PCP:  0.04;

MARSHALL       PTCLDY    71  65  80 S9G17     29.94R
MUSKEGON       CLOUDY    74  68  81 S17G25    29.84S
6HR MIN TEMP:  73; 6HR MAX TEMP:  77; 6HR PCP: TRACE;

$$
MIZ016>042-301300-
NORTHERN LOWER MICHIGAN

CITY           SKY/WX    TMP DP  RH WIND       PRES   REMARKS
ALPENA         PTSUNNY   65  62  90 S5        29.86F
6HR MIN TEMP:  63; 6HR MAX TEMP:  68; 6HR PCP:  0.16;

BEAVER ISLAND  CLOUDY    69  67  96 SW5       29.79F FOG
BELLAIRE       CLOUDY    72  65  81 S6        29.81R
6HR MIN TEMP:  71; 6HR MAX TEMP:  73;

CADILLAC       CLOUDY    68  68  99 S5        29.85F
CHARLEVOIX     CLOUDY    73  67  82 S6        29.82S
6HR MIN TEMP:  72; 6HR MAX TEMP:  73;

FRANKFORT      RAIN      71  67  87 SE5       29.79S
GAYLORD        CLOUDY    67  65  93 S8        29.85F
6HR MIN TEMP:  66; 6HR MAX TEMP:  68; 6HR PCP: TRACE;

GRAYLING       CLOUDY    69  67  94 S6        29.87R
6HR MIN TEMP:  69; 6HR MAX TEMP:  69;

HARBOR SPRINGS CLOUDY    71  66  85 CALM      29.80F
HOUGHTON LAKE  LGT RAIN  67  64  90 S9        29.88S
6HR MIN TEMP:  66; 6HR MAX TEMP:  68; 6HR PCP: TRACE;

MANISTEE       CLOUDY    70  66  88 SE3       29.81S
OSCODA         MOSUNNY   67  64  89 S6        29.88F
PELLSTON       CLOUDY    69  67  93 NE9       29.81S
6HR MIN TEMP:  66; 6HR MAX TEMP:  69;

TRAVERSE CITY  LGT RAIN  73  66  78 VRB3      29.79R
6HR MIN TEMP:  72; 6HR MAX TEMP:  74; 6HR PCP:  0.03;

$$
MIZ007>008-015-301300-
EASTERN UPPER MICHIGAN

CITY           SKY/WX    TMP DP  RH WIND       PRES   REMARKS
KINROSS        CLOUDY    64  64 100 CALM      29.82S
6HR MIN TEMP:  64; 6HR MAX TEMP:  66; 6HR PCP:  0.04;

MACKINAC ISLAN CLOUDY    66  66 100 S3        29.81S FOG
6HR MIN TEMP:  64; 6HR MAX TEMP:  68;

NEWBERRY       CLOUDY    67  66  99 SW7       29.79F FOG
S. S. MARIE    CLOUDY    64  62  93 E3        29.82S FOG
6HR MIN TEMP:  63; 6HR MAX TEMP:  65; 6HR PCP:  0.08;

$$
MIZ004>006-011>014-085-301300-
CENTRAL UPPER MICHIGAN

CITY           SKY/WX    TMP DP  RH WIND       PRES   REMARKS
MANISTIQUE     FOG       65  65 100 CALM      29.77F VSB<1/4
ESCANABA       CLOUDY    66  64  94 E3        29.75F
6HR MIN TEMP:  64; 6HR MAX TEMP:  66; 6HR PCP:  0.55;

MENOMINEE      CLOUDY    66  63  88 SE5       29.74F
6HR MIN TEMP:  64; 6HR MAX TEMP:  70; 6HR PCP:  0.43;

SAWYER-GWINN   RAIN      63  63 100 CALM      29.78F
$$
MIZ001>003-009>011-084-301300-
WESTERN UPPER MICHIGAN

CITY           SKY/WX    TMP DP  RH WIND       PRES   REMARKS
IRON MOUNTAIN  LGT RAIN  65  63  93 SE5       29.76R
6HR MIN TEMP:  64; 6HR MAX TEMP:  66; 6HR PCP:  0.15;

HOUGHTON       LGT RAIN  60  57  89 NE6       29.78R FOG
6HR MIN TEMP:  60; 6HR MAX TEMP:  64; 6HR PCP:  0.05;

COPPER HARBOR    N/A     55  53  93 N6        29.78S
6HR MIN TEMP:  55; 6HR MAX TEMP:  61; 6HR PCP:  0.44;

$$

ABBREVIATIONS USED IN REMARKS
   TC - TEMPERATURE IN CELSIUS
  WCI - WIND CHILL INDEX
   HX - HEAT INDEX
  VSB - VISIBILITY




USA.gov is the U.S. government's official web portal to all federal, state and local government web resources and services.